Ivalo, Finland

5:07 PM EEST on August 27, 2016 (GMT +0300)
Ivalo

Weather History for EFIV - March, 2013

Change the Weather History Date:

Saturday, March 9, 2013

  Actual Average Record
Temperature  
Mean Temperature 0 °F -  
Max Temperature 18 °F - - ()
Min Temperature -17 °F - - ()
Degree Days  
Heating Degree Days 64    
Moisture  
Dew Point -5 °F    
Average Humidity 76    
Maximum Humidity 92    
Minimum Humidity 49    
Precipitation  
Precipitation 0.00 in - - ()
Sea Level Pressure  
Sea Level Pressure 30.02 in    
Wind  
Wind Speed 5 mph ()    
Max Wind Speed 13 mph    
Max Gust Speed -    
Visibility 6.2 miles    
Events Snow    
T = Trace of Precipitation, MM = Missing Value Source: Averaged Metar Reports

Daily Weather History Graph

Daily Weather History Graph

Search for Another Location

Airport or City:

Trip Planner

Search our weather history database for the weather conditions in past years. The results will help you decide how hot, cold, wet, or windy it might be!

Date:

Astronomy

Mar. 09, 2013 Rise Set
Actual Time 6:57 AM EET 5:46 PM EET
Civil Twilight 6:00 AM EET 6:43 PM EET
Nautical Twilight 4:53 AM EET 7:50 PM EET
Astronomical Twilight 3:38 AM EET 9:06 PM EET
Moon 6:12 AM EET (3/9) 2:33 PM EET (3/9)
Length of Visible Light 12h 42m
Length of Day
10h 48m
Waning Crescent, 7% of the Moon is Illuminated
Mar 9
Waning Crescent
Mar 11
New
Mar 19
First Quarter
Mar 27
Full
Apr 3
Last Quarter

Hourly Weather History & Observations

Time (EET) Temp. Windchill Dew Point Humidity Pressure Visibility Wind Dir Wind Speed Gust Speed Precip Events Conditions
12:20 AM -11.2 °F - -16.6 °F 77% 30.06 in - SE 1.2 mph - N/A   Clear
12:50 AM -11.2 °F - -14.8 °F 84% 30.09 in - Variable 1.2 mph - N/A   Clear
1:20 AM -13.0 °F -22.7 °F -18.4 °F 77% 30.09 in - SW 3.5 mph - N/A   Clear
1:50 AM -14.8 °F -24.8 °F -18.4 °F 84% 30.09 in - WSW 3.5 mph - N/A   Clear
2:00 AM -15 °F - -19 °F 70% 30.19 in 31 mi Calm Calm - -   Clear
2:20 AM -14.8 °F - -18.4 °F 84% 30.09 in - Variable 1.2 mph - N/A   Clear
2:50 AM -16.6 °F -29.3 °F -20.2 °F 84% 30.09 in - WSW 4.6 mph - N/A   Clear
3:20 AM -16.6 °F -26.8 °F -22.0 °F 76% 30.09 in - WSW 3.5 mph - N/A   Clear
3:50 AM -16.6 °F - -22.0 °F 76% 30.09 in - WSW 2.3 mph - N/A   Clear
4:20 AM -14.8 °F - -20.2 °F 77% 30.09 in - Calm Calm - N/A   Clear
4:50 AM -16.6 °F - -22.0 °F 76% 30.09 in - WSW 1.2 mph - N/A   Clear
5:20 AM -18.4 °F -31.4 °F -23.8 °F 76% 30.09 in - WSW 4.6 mph - N/A   Clear
5:50 AM -16.6 °F - -22.0 °F 76% 30.09 in - SW 2.3 mph - N/A   Clear
6:20 AM -16.6 °F -26.8 °F -20.2 °F 84% 30.09 in - WSW 3.5 mph - N/A   Clear
6:50 AM -16.6 °F -31.3 °F -22.0 °F 76% 30.09 in - WSW 5.8 mph - N/A   Clear
7:20 AM -16.6 °F -29.3 °F -22.0 °F 76% 30.09 in - WSW 4.6 mph - N/A   Clear
7:50 AM -16.6 °F -29.3 °F -20.2 °F 84% 30.09 in - WSW 4.6 mph - N/A   Clear
8:00 AM -17 °F - -21 °F 72% 30.19 in 31 mi WSW 6.7 mph - -   Clear
8:20 AM -16.6 °F -32.9 °F -20.2 °F 84% 30.09 in - SW 6.9 mph - N/A   Clear
8:50 AM -13.0 °F -25.1 °F -16.6 °F 84% 30.09 in - SW 4.6 mph - N/A   Clear
9:20 AM -11.2 °F -24.8 °F -14.8 °F 84% 30.06 in - WSW 5.8 mph - N/A   Clear
9:50 AM -7.6 °F -18.8 °F -11.2 °F 84% 30.06 in - WSW 4.6 mph - N/A   Clear
10:20 AM -5.8 °F -19.9 °F -9.4 °F 84% 30.06 in - WSW 6.9 mph - N/A   Clear
10:50 AM -4.0 °F -16.3 °F -5.8 °F 92% 30.06 in - SW 5.8 mph - N/A   Clear
11:20 AM 1.4 °F -8.3 °F -2.2 °F 85% 30.06 in - WSW 4.6 mph - N/A   Clear
11:50 AM 5.0 °F -6.9 °F 1.4 °F 85% 30.04 in - WSW 6.9 mph - N/A   Clear
12:20 PM 8.6 °F -2.6 °F 5.0 °F 85% 30.04 in - SW 6.9 mph - N/A   Clear
12:50 PM 14.0 °F 5.1 °F 5.0 °F 67% 30.04 in - WSW 5.8 mph - N/A   Clear
1:20 PM 15.8 °F 5.1 °F 6.8 °F 68% 30.04 in - West 8.1 mph - N/A   Clear
1:50 PM 17.6 °F 6.4 °F 6.8 °F 63% 30.04 in - West 9.2 mph - N/A   Clear
2:00 PM 18 °F - 7 °F 49% 30.08 in 31 mi West 8.9 mph - -   Clear
2:20 PM 17.6 °F 7.3 °F 6.8 °F 63% 30.01 in - West 8.1 mph - N/A   Clear
2:50 PM 17.6 °F 6.4 °F 6.8 °F 63% 30.01 in - West 9.2 mph - N/A   Clear
3:20 PM 17.6 °F 5.7 °F 6.8 °F 63% 30.01 in - West 10.4 mph - N/A   Clear
3:50 PM 17.6 °F 6.4 °F 6.8 °F 63% 30.01 in - West 9.2 mph - N/A   Clear
4:20 PM 17.6 °F 6.4 °F 6.8 °F 63% 29.98 in - West 9.2 mph - N/A   Clear
4:50 PM 15.8 °F 4.2 °F 6.8 °F 68% 29.98 in - WSW 9.2 mph - N/A   Clear
5:20 PM 15.8 °F 3.4 °F 6.8 °F 68% 29.98 in - SW 10.4 mph - N/A   Clear
5:50 PM 14.0 °F 1.2 °F 6.8 °F 73% 29.95 in - SW 10.4 mph - N/A   Clear
6:20 PM 12.2 °F -1.0 °F 5.0 °F 73% 29.95 in - SSW 10.4 mph - N/A   Clear
6:50 PM 12.2 °F -0.2 °F 6.8 °F 79% 29.92 in - SW 9.2 mph - N/A   Clear
7:20 PM 12.2 °F 1.7 °F 6.8 °F 79% 29.92 in - SW 6.9 mph - N/A   Clear
7:50 PM 12.2 °F -1.0 °F 5.0 °F 73% 29.89 in - SW 10.4 mph - N/A   Clear
8:00 PM 13 °F - 6 °F 63% 29.96 in 31 mi SW 13.4 mph - -   Clear
8:20 PM 12.2 °F 0.7 °F 5.0 °F 73% 29.89 in - SW 8.1 mph - N/A   Clear
8:50 PM 14.0 °F 2.9 °F 6.8 °F 73% 29.89 in 6.2 mi SSW 8.1 mph - N/A Snow Light Snow
9:20 PM 14.0 °F 2.0 °F 6.8 °F 73% 29.86 in 6.2 mi SW 9.2 mph - N/A Snow Light Snow
9:50 PM 12.2 °F 1.7 °F 6.8 °F 79% 29.86 in 6.2 mi SW 6.9 mph - N/A Snow Light Snow Showers
10:20 PM 12.2 °F -1.0 °F 6.8 °F 79% 29.86 in 6.2 mi WSW 10.4 mph - N/A Snow Light Snow Showers
10:50 PM 12.2 °F -1.0 °F 6.8 °F 79% 29.83 in - West 10.4 mph - N/A   Clear
11:20 PM 12.2 °F -0.2 °F 6.8 °F 79% 29.83 in - West 9.2 mph - N/A   Clear
11:50 PM 14.0 °F 2.9 °F 8.6 °F 79% 29.83 in - WNW 8.1 mph - N/A   Clear